Simultaneous Nadir Overpasses (SNOs) Predictions

Prediction of SNOs between AQUA and NOAA-19 Satellite Orbit:

Table of predicted SNOs for the next 14.0 days since TLE Epoch: 4/3/2021
Index Date (AQUA) Time (AQUA) Lat,Lon (AQUA) SZA (AQUA ) Date (NOAA-19) Time (NOAA-19) Lat,Lon (NOAA-19) SZA (NOAA-19 ) Distance(km) Time Diff (sec)
1 04/03/2021 03:04:50 79.00, 110.16 74.59 04/03/2021 03:04:31 79.00, 109.99 74.61 3.50 19
2 04/03/2021 03:54:22 -79.25, -83.76 105.07 04/03/2021 03:55:28 -79.27, -80.48 105.33 67.92 66
3 04/05/2021 08:38:33 -79.00,-153.32 106.26 04/05/2021 08:37:48 -79.00,-153.24 106.26 1.99 45
4 04/05/2021 09:28:01 79.03, 14.16 73.77 04/05/2021 09:28:42 79.03, 14.28 73.74 2.49 41
5 04/07/2021 15:01:42 -79.00, 110.93 107.13 04/07/2021 15:01:58 -79.02, 110.98 107.13 2.37 16
6 04/09/2021 20:35:26 78.99,-152.46 72.02 04/09/2021 20:35:06 78.98,-152.54 72.02 2.29 20
7 04/09/2021 21:24:55 -79.12, 14.42 107.82 04/09/2021 21:26:05 -79.16, 16.23 107.95 38.14 70
8 04/12/2021 02:09:08 -78.96, -55.71 108.86 04/12/2021 02:08:22 -78.98, -55.78 108.82 2.32 46
9 04/12/2021 02:58:36 78.99, 111.72 71.18 04/12/2021 02:59:17 79.01, 111.73 71.18 1.22 41
10 04/14/2021 08:32:18 -78.96,-151.53 109.68 04/14/2021 08:32:33 -78.99,-151.62 109.65 3.39 15
11 04/16/2021 14:06:02 78.98, -55.04 69.54 04/16/2021 14:05:42 78.95, -55.13 69.53 3.56 20



Historial Predications of SNOs between AQUA and NOAA-19
